Oregon State Current Weather Observations

 
 ASUS46 KPQR 171810
 RWROR 
 
 OREGON REGIONAL WEATHER ROUNDUP
 NATIONAL WEATHER SERVICE PORTLAND OR
 1100 AM PDT MON JUN 17 2019
 
 NOTE: "FAIR" INDICATES FEW OR NO CLOUDS BELOW 12,000 FEET WITH
 NO SIGNIFICANT WEATHER AND/OR OBSTRUCTIONS TO VISIBILITY.
 
 ORZ001>013-171900-
 NORTHWEST OREGON
 
   
 CITY           SKY/WX    TMP DP  RH WIND       PRES   REMARKS
 ASTORIA        CLOUDY    59  55  87 NW7       30.18R                  
 6HR MIN TEMP:  54; 6HR MAX TEMP:  60; 6HR PCP: TRACE;                
 
 TILLAMOOK      FAIR      63  54  72 W6        30.19S                  
 NEWPORT        FAIR      59  54  82 N12       30.20S                  
 PORTLAND       CLOUDY    64  51  62 N3        30.16R                  
 6HR MIN TEMP:  58; 6HR MAX TEMP:  64;                                
 
 VANCOUVER WA   CLOUDY    63  52  67 VRB5      30.15S                  
 6HR MIN TEMP:  57; 6HR MAX TEMP:  63;                                
 
 SCAPPOOSE      FAIR      65  54  67 NE6       30.14S                  
 6HR MIN TEMP:  52; 6HR MAX TEMP:  66;                                
 
 HILLSBORO      FAIR      67  52  58 VRB5      30.14S                  
 6HR MIN TEMP:  50; 6HR MAX TEMP:  68;                                
 
 AURORA         FAIR      69  52  54 VRB5      30.15S                  
 6HR MIN TEMP:  54; 6HR MAX TEMP:  69;                                
 
 MCMINNVILLE    FAIR      70  53  54 CALM      30.14R                  
 6HR MIN TEMP:  51; 6HR MAX TEMP:  70;                                
 
 SALEM          FAIR      69  52  54 VRB3      30.13S                  
 6HR MIN TEMP:  53; 6HR MAX TEMP:  70;                                
 
 CORVALLIS      FAIR      70  53  54 CALM      30.14S                  
 EUGENE         FAIR      73  54  51 N10       30.14R                  
 6HR MIN TEMP:  50; 6HR MAX TEMP:  73;                                
 
 
ORZ021-028-171900- SOUTHWEST OREGON CITY SKY/WX TMP DP RH WIND PRES REMARKS NORTH BEND FAIR 61 53 75 N16 30.16S 6HR MIN TEMP: 51; 6HR MAX TEMP: 61; BROOKINGS FAIR 83 52 34 NW8G18 29.99S ROSEBURG FAIR 74 53 48 N6 30.10F 6HR MIN TEMP: 58; 6HR MAX TEMP: 74; SEXTON SUMMIT FAIR 66 49 54 VRB3 30.15S 6HR MIN TEMP: 50; 6HR MAX TEMP: 66; GRANTS PASS FAIR 77 50 38 CALM 30.08F MEDFORD FAIR 75 48 38 S3 30.06F 6HR MIN TEMP: 56; 6HR MAX TEMP: 75;
ORZ014>016-041-171900- COLUMBIA GORGE CITY SKY/WX TMP DP RH WIND PRES REMARKS TROUTDALE CLOUDY 61 52 72 SW3 30.16R 6HR MIN TEMP: 59; 6HR MAX TEMP: 61; HOOD RIVER FAIR 73 52 46 W6 30.04S THE DALLES FAIR 75 54 47 NW21G29 29.99S 6HR MIN TEMP: 62; 6HR MAX TEMP: 75;
ORZ029>031-041-044-049-050-061>064-502-503-505>511-171900- EASTERN OREGON CITY SKY/WX TMP DP RH WIND PRES REMARKS MADRAS FAIR 73 45 35 MISG 30.10S REDMOND FAIR 76 41 28 VRB5 30.10S 6HR MIN TEMP: 47; 6HR MAX TEMP: 76; BEND FAIR 75 37 25 CALM 30.10F PRINEVILLE FAIR 72 41 33 NW12 30.10F KLAMATH FALLS FAIR 73 41 31 NW6 30.10F 6HR MIN TEMP: 48; 6HR MAX TEMP: 74; LAKEVIEW FAIR 72 40 31 N15 30.12F HERMISTON FAIR 82 48 30 SW8 29.97F 6HR MIN TEMP: 65; 6HR MAX TEMP: 82; PENDLETON FAIR 78 46 32 VRB6 30.00S 6HR MIN TEMP: 57; 6HR MAX TEMP: 79; JOHN DAY FAIR 71 42 35 CALM 30.10S MEACHAM FAIR 69 46 43 VRB6 30.09S 6HR MIN TEMP: 43; 6HR MAX TEMP: 70; LA GRANDE FAIR 76 48 37 NW15 30.03S 6HR MIN TEMP: 62; 6HR MAX TEMP: 76; BAKER CITY FAIR 74 49 41 W7 30.05S 6HR MIN TEMP: 48; 6HR MAX TEMP: 75; BURNS FAIR 75 37 25 W12 30.09F 6HR MIN TEMP: 53; 6HR MAX TEMP: 75; ROME N/A 81 39 22 NE10 30.04F 6HR MIN TEMP: 50; 6HR MAX TEMP: 81; ONTARIO FAIR 86 46 24 W6 29.96S 6HR MIN TEMP: 65; 6HR MAX TEMP: 87;

Data from: http://www.wrh.noaa.gov/sew/get.php?pil=RWR&sid=OR&version=0&format=printer

Current Observations

Current Weather Conditions by Major Highway
Washington State Current Weather Observations   …  Oregon State Current Weather Observation



48 Hour Forecast


Seattle  …  Vancouver  …  Portland
————————————————————————————————————————
Bend  …  Spokane  …  Richland  …  Pendleton  …  Blue Mountains I-84  …  Yakima
————————————————————————————————————————
Goldendale, Washington Higher Elevations  …  Dallesport Airport - Goldendale  …  Bingen - White Salmon - Hood River  …  Index





Top of Page